| time (UTC) | temp F | wind direction | speed MPH | gust MPH | rain 1hr in | rain 24hr in | rain mn in | humidity % | barometer mb |
| 20260507101536 | 37 | 0.0 | 0.0 | 0.00 | 0.03 | 0.00 | 89 | 1013.6 | |
| 20260507100515 | 37 | 0.0 | 0.0 | 0.00 | 0.03 | 0.00 | 89 | 1013.4 | |
| 20260507095515 | 37 | 0.0 | 0.0 | 0.00 | 0.03 | 0.00 | 89 | 1013.5 | |
| 20260507094515 | 37 | 0.0 | 0.0 | 0.00 | 0.04 | 0.00 | 89 | 1013.5 | |
| 20260507093515 | 38 | 0.0 | 0.0 | 0.00 | 0.05 | 0.00 | 89 | 1013.5 | |
| 20260507092515 | 38 | 0.0 | 0.0 | 0.00 | 0.06 | 0.00 | 89 | 1013.5 | |
| 20260507091516 | 38 | 0.0 | 0.0 | 0.00 | 0.08 | 0.00 | 89 | 1013.6 | |
| 20260507090516 | 38 | 0.0 | 0.0 | 0.00 | 0.10 | 0.00 | 89 | 1013.6 | |
| 20260507085536 | 38 | 0.0 | 0.0 | 0.00 | 0.12 | 0.00 | 89 | 1013.7 | |
| 20260507084515 | 38 | 0.0 | 0.0 | 0.00 | 0.12 | 0.00 | 88 | 1013.6 | |
| 20260507083515 | 39 | 0.0 | 0.0 | 0.00 | 0.12 | 0.00 | 88 | 1013.7 | |
| 20260507082515 | 39 | 0.0 | 0.0 | 0.00 | 0.13 | 0.00 | 88 | 1013.7 | |
| 20260507081535 | 39 | 0.0 | 0.0 | 0.00 | 0.15 | 0.00 | 88 | 1013.8 | |
| 20260507080515 | 39 | 0.0 | 0.0 | 0.00 | 0.16 | 0.00 | 88 | 1013.8 | |
| 20260507075515 | 40 | 0.0 | 0.0 | 0.00 | 0.19 | 0.00 | 88 | 1013.9 | |
| 20260507074515 | 40 | 0.0 | 0.0 | 0.00 | 0.22 | 0.00 | 88 | 1013.7 | |
| 20260507073516 | 40 | 0.0 | 0.0 | 0.00 | 0.25 | 0.00 | 88 | 1013.7 | |
| 20260507072515 | 41 | 0.0 | 0.0 | 0.00 | 0.27 | 0.00 | 87 | 1013.7 | |
| 20260507071515 | 41 | 0.0 | 0.0 | 0.00 | 0.28 | 0.00 | 87 | 1013.7 | |
| 20260507070515 | 41 | 0.0 | 0.0 | 0.00 | 0.29 | 0.00 | 87 | 1013.6 | |
| 20260507065515 | 42 | 0.0 | 0.0 | 0.00 | 0.31 | 0.00 | 87 | 1013.7 | |
| 20260507064515 | 42 | 0.0 | 0.0 | 0.00 | 0.33 | 0.00 | 87 | 1013.7 | |
| 20260507063515 | 42 | 0.0 | 0.0 | 0.00 | 0.34 | 0.00 | 87 | 1013.8 | |
| 20260507062515 | 43 | 0.0 | 0.0 | 0.00 | 0.34 | 0.00 | 86 | 1014.0 | |
| 20260507061515 | 43 | 0.0 | 0.0 | 0.00 | 0.36 | 0.00 | 86 | 1014.1 | |
| 20260507060515 | 43 | 0.0 | 0.0 | 0.00 | 0.38 | 0.00 | 85 | 1014.1 | |
| 20260507055515 | 44 | 0.0 | 0.0 | 0.00 | 0.38 | 0.00 | 84 | 1014.2 | |
| 20260507054535 | 44 | 0.0 | 0.0 | 0.00 | 0.38 | 0.00 | 83 | 1014.3 | |
| 20260507053515 | 45 | 0.0 | 0.0 | 0.00 | 0.38 | 0.00 | 82 | 1014.4 | |
| 20260507052516 | 45 | 0.0 | 0.0 | 0.00 | 0.39 | 0.00 | 82 | 1014.4 | |
| 20260507051536 | 46 | 0.0 | 0.0 | 0.00 | 0.39 | 0.00 | 80 | 1014.5 | |
| 20260507050515 | 46 | 0.0 | 0.0 | 0.00 | 0.40 | 0.00 | 80 | 1014.5 | |
| 20260507045515 | 46 | 0.0 | 0.0 | 0.00 | 0.42 | 0.00 | 79 | 1014.4 | |
| 20260507044536 | 46 | 0.0 | 0.0 | 0.00 | 0.45 | 0.00 | 78 | 1014.4 | |
| 20260507043535 | 46 | 0.0 | 0.0 | 0.00 | 0.46 | 0.00 | 78 | 1014.4 | |
| 20260507042516 | 47 | 0.0 | 0.0 | 0.00 | 0.48 | 0.00 | 77 | 1014.4 | |
| 20260507041515 | 47 | 0.0 | 0.0 | 0.00 | 0.49 | 0.00 | 76 | 1014.5 | |
| 20260507040516 | 48 | 0.0 | 0.0 | 0.00 | 0.50 | 0.00 | 76 | 1014.5 | |
| 20260507035516 | 49 | 0.0 | 0.0 | 0.00 | 0.50 | 0.50 | 74 | 1014.5 | |
| 20260507034516 | 49 | 0.0 | 0.0 | 0.00 | 0.51 | 0.50 | 74 | 1014.5 | |
| 20260507033516 | 49 | 0.0 | 0.0 | 0.00 | 0.53 | 0.50 | 73 | 1014.6 | |
| 20260507032516 | 50 | 0.0 | 0.0 | 0.00 | 0.54 | 0.50 | 72 | 1014.6 | |
| 20260507031557 | 50 | 0.0 | 0.0 | 0.00 | 0.54 | 0.50 | 72 | 1014.6 | |
| 20260507030516 | 51 | 0.0 | 1.0 | 0.00 | 0.55 | 0.50 | 71 | 1014.4 | |
| 20260507025516 | 51 | 283 | 0.0 | 1.0 | 0.00 | 0.55 | 0.50 | 69 | 1014.3 |
| 20260507024516 | 51 | 284 | 0.0 | 5.0 | 0.00 | 0.56 | 0.50 | 67 | 1014.2 |
| 20260507023516 | 51 | 272 | 1.0 | 4.0 | 0.00 | 0.56 | 0.50 | 70 | 1014.3 |
| 20260507022516 | 51 | 287 | 1.0 | 4.0 | 0.00 | 0.57 | 0.50 | 73 | 1014.1 |
| 20260507021517 | 51 | 264 | 1.0 | 4.0 | 0.00 | 0.57 | 0.50 | 75 | 1014.0 |
| 20260507020536 | 51 | 284 | 0.0 | 1.0 | 0.00 | 0.57 | 0.50 | 74 | 1013.8 |
| 20260507015516 | 50 | 0.0 | 0.0 | 0.00 | 0.57 | 0.50 | 72 | 1013.6 | |
| 20260507014516 | 51 | 0.0 | 0.0 | 0.00 | 0.58 | 0.50 | 71 | 1013.4 | |
| 20260507013517 | 51 | 0.0 | 0.0 | 0.00 | 0.58 | 0.50 | 69 | 1013.4 | |
| 20260507012516 | 51 | 0.0 | 1.0 | 0.00 | 0.58 | 0.50 | 69 | 1013.1 | |
| 20260507011516 | 52 | 0.0 | 1.0 | 0.00 | 0.58 | 0.50 | 69 | 1013.0 | |
| 20260507010537 | 52 | 0.0 | 0.0 | 0.00 | 0.58 | 0.50 | 69 | 1012.9 | |
| 20260507005516 | 53 | 0.0 | 1.0 | 0.00 | 0.58 | 0.50 | 68 | 1012.9 | |
| 20260507004517 | 54 | 284 | 0.0 | 2.0 | 0.00 | 0.59 | 0.50 | 64 | 1012.8 |
| 20260507003536 | 54 | 276 | 1.0 | 2.0 | 0.00 | 0.59 | 0.50 | 61 | 1012.8 |
| 20260507002516 | 54 | 283 | 1.0 | 3.0 | 0.00 | 0.61 | 0.50 | 62 | 1012.7 |
| 20260507001516 | 55 | 286 | 1.0 | 5.0 | 0.00 | 0.63 | 0.50 | 61 | 1012.7 |
| 20260507000516 | 55 | 280 | 1.0 | 4.0 | 0.00 | 0.63 | 0.50 | 62 | 1012.7 |
| 20260506235516 | 55 | 281 | 1.0 | 3.0 | 0.00 | 0.63 | 0.50 | 62 | 1012.9 |
| 20260506234556 | 55 | 279 | 1.0 | 3.0 | 0.00 | 0.65 | 0.50 | 62 | 1012.9 |
| 20260506233557 | 55 | 274 | 0.0 | 2.0 | 0.00 | 0.66 | 0.50 | 61 | 1012.9 |
| 20260506232536 | 56 | 262 | 0.0 | 1.0 | 0.00 | 0.66 | 0.50 | 64 | 1012.8 |
| 20260506231516 | 56 | 249 | 1.0 | 4.0 | 0.00 | 0.66 | 0.50 | 60 | 1012.9 |
| 20260506230516 | 56 | 277 | 1.0 | 6.0 | 0.00 | 0.66 | 0.50 | 59 | 1012.8 |
| 20260506225536 | 56 | 277 | 2.0 | 4.0 | 0.00 | 0.66 | 0.50 | 58 | 1012.7 |
| 20260506224536 | 56 | 281 | 2.0 | 5.0 | 0.00 | 0.66 | 0.50 | 57 | 1012.6 |
| 20260506223516 | 57 | 286 | 2.0 | 4.0 | 0.00 | 0.66 | 0.50 | 58 | 1012.5 |
| 20260506222536 | 57 | 277 | 1.0 | 4.0 | 0.00 | 0.66 | 0.50 | 57 | 1012.3 |
| 20260506221616 | 57 | 289 | 1.0 | 5.0 | 0.00 | 0.66 | 0.50 | 55 | 1012.3 |
| 20260506220516 | 57 | 279 | 1.0 | 4.0 | 0.00 | 0.66 | 0.50 | 58 | 1012.0 |
| 20260506215516 | 57 | 275 | 1.0 | 6.0 | 0.00 | 0.66 | 0.50 | 55 | 1012.0 |
| 20260506214517 | 57 | 278 | 2.0 | 4.0 | 0.00 | 0.66 | 0.50 | 55 | 1011.9 |
| 20260506213516 | 57 | 279 | 2.0 | 5.0 | 0.00 | 0.66 | 0.50 | 54 | 1011.9 |
| 20260506212516 | 58 | 273 | 2.0 | 6.0 | 0.00 | 0.66 | 0.50 | 54 | 1011.8 |
| 20260506211537 | 58 | 269 | 2.0 | 6.0 | 0.00 | 0.66 | 0.50 | 54 | 1011.7 |
| 20260506210516 | 58 | 278 | 3.0 | 7.0 | 0.00 | 0.66 | 0.50 | 56 | 1011.6 |
| 20260506205516 | 58 | 268 | 2.0 | 6.0 | 0.00 | 0.66 | 0.50 | 55 | 1011.4 |
| 20260506204516 | 58 | 273 | 2.0 | 6.0 | 0.00 | 0.66 | 0.50 | 56 | 1011.5 |
| 20260506203517 | 58 | 270 | 2.0 | 8.0 | 0.00 | 0.66 | 0.50 | 56 | 1011.5 |
| 20260506202517 | 58 | 288 | 3.0 | 7.0 | 0.00 | 0.66 | 0.50 | 55 | 1011.6 |
| 20260506201516 | 59 | 284 | 4.0 | 8.0 | 0.00 | 0.66 | 0.50 | 55 | 1011.6 |
| 20260506200517 | 59 | 284 | 3.0 | 7.0 | 0.00 | 0.66 | 0.50 | 54 | 1011.6 |
| 20260506195516 | 60 | 252 | 3.0 | 6.0 | 0.00 | 0.66 | 0.50 | 56 | 1011.5 |
| 20260506194536 | 59 | 267 | 3.0 | 9.0 | 0.00 | 0.66 | 0.50 | 58 | 1011.3 |
| 20260506193536 | 59 | 271 | 3.0 | 6.0 | 0.00 | 0.66 | 0.50 | 59 | 1011.6 |
| 20260506192517 | 58 | 269 | 2.0 | 8.0 | 0.00 | 0.66 | 0.50 | 60 | 1011.7 |
| 20260506191516 | 58 | 284 | 3.0 | 9.0 | 0.00 | 0.66 | 0.50 | 59 | 1011.8 |
| 20260506190516 | 58 | 280 | 3.0 | 8.0 | 0.00 | 0.66 | 0.50 | 61 | 1011.8 |
| 20260506185516 | 58 | 282 | 2.0 | 7.0 | 0.00 | 0.66 | 0.50 | 59 | 1011.6 |
| 20260506184517 | 57 | 281 | 2.0 | 6.0 | 0.00 | 0.66 | 0.50 | 60 | 1011.7 |
| 20260506183516 | 57 | 283 | 2.0 | 6.0 | 0.00 | 0.66 | 0.50 | 61 | 1011.9 |
| 20260506182516 | 57 | 280 | 2.0 | 7.0 | 0.00 | 0.66 | 0.50 | 60 | 1011.7 |
| 20260506181516 | 57 | 282 | 3.0 | 6.0 | 0.00 | 0.66 | 0.50 | 60 | 1011.6 |
| 20260506180516 | 58 | 281 | 4.0 | 7.0 | 0.00 | 0.66 | 0.50 | 60 | 1011.6 |
| 20260506175516 | 58 | 279 | 3.0 | 8.0 | 0.00 | 0.66 | 0.50 | 61 | 1011.7 |
| 20260506174516 | 57 | 273 | 1.0 | 7.0 | 0.00 | 0.66 | 0.50 | 64 | 1011.8 |
| 20260506173516 | 57 | 288 | 4.0 | 8.0 | 0.00 | 0.66 | 0.50 | 64 | 1011.8 |
| 20260506172516 | 57 | 267 | 3.0 | 10.0 | 0.00 | 0.66 | 0.50 | 66 | 1012.0 |
| 20260506171536 | 57 | 278 | 3.0 | 7.0 | 0.00 | 0.66 | 0.50 | 69 | 1011.8 |
| 20260506170516 | 56 | 268 | 2.0 | 6.0 | 0.00 | 0.66 | 0.50 | 72 | 1011.5 |
| 20260506165516 | 56 | 285 | 2.0 | 6.0 | 0.00 | 0.66 | 0.50 | 74 | 1011.7 |
| 20260506164516 | 55 | 291 | 2.0 | 8.0 | 0.00 | 0.66 | 0.50 | 73 | 1011.7 |
| 20260506163516 | 55 | 270 | 2.0 | 4.0 | 0.00 | 0.66 | 0.50 | 75 | 1011.8 |
| 20260506162516 | 54 | 285 | 1.0 | 5.0 | 0.00 | 0.66 | 0.50 | 75 | 1011.5 |
| 20260506161516 | 54 | 271 | 1.0 | 6.0 | 0.00 | 0.66 | 0.50 | 77 | 1011.4 |
| 20260506160517 | 53 | 276 | 2.0 | 7.0 | 0.00 | 0.66 | 0.50 | 77 | 1011.2 |
| 20260506155516 | 52 | 275 | 2.0 | 7.0 | 0.00 | 0.66 | 0.50 | 82 | 1011.2 |
| 20260506154516 | 52 | 273 | 3.0 | 6.0 | 0.00 | 0.66 | 0.50 | 81 | 1011.1 |
| 20260506153516 | 52 | 276 | 2.0 | 7.0 | 0.00 | 0.66 | 0.50 | 83 | 1010.9 |
| 20260506152516 | 51 | 278 | 2.0 | 4.0 | 0.00 | 0.66 | 0.50 | 85 | 1010.8 |
| 20260506151516 | 51 | 277 | 2.0 | 6.0 | 0.00 | 0.66 | 0.50 | 85 | 1010.8 |
| 20260506150516 | 50 | 282 | 3.0 | 7.0 | 0.00 | 0.66 | 0.50 | 85 | 1010.7 |
| 20260506145516 | 50 | 276 | 2.0 | 5.0 | 0.00 | 0.66 | 0.50 | 87 | 1010.6 |
| 20260506144516 | 50 | 275 | 2.0 | 7.0 | 0.00 | 0.66 | 0.50 | 88 | 1010.4 |
| 20260506143537 | 50 | 271 | 2.0 | 8.0 | 0.00 | 0.66 | 0.50 | 88 | 1010.2 |
| 20260506142516 | 50 | 282 | 2.0 | 6.0 | 0.00 | 0.66 | 0.50 | 90 | 1010.0 |
| 20260506141536 | 50 | 280 | 1.0 | 6.0 | 0.00 | 0.66 | 0.50 | 90 | 1009.8 |
| 20260506140516 | 50 | 278 | 1.0 | 5.0 | 0.00 | 0.66 | 0.50 | 90 | 1009.7 |
| 20260506135556 | 49 | 282 | 1.0 | 3.0 | 0.00 | 0.66 | 0.50 | 91 | 1009.5 |
| 20260506134515 | 49 | 278 | 2.0 | 6.0 | 0.00 | 0.66 | 0.50 | 91 | 1009.4 |
| 20260506133517 | 49 | 133 | 0.0 | 4.0 | 0.01 | 0.66 | 0.50 | 91 | 1009.4 |
| 20260506132516 | 49 | 265 | 1.0 | 4.0 | 0.01 | 0.66 | 0.50 | 91 | 1009.4 |
| 20260506131516 | 48 | 275 | 1.0 | 4.0 | 0.01 | 0.66 | 0.50 | 91 | 1009.3 |
| 20260506130516 | 48 | 271 | 1.0 | 3.0 | 0.01 | 0.66 | 0.50 | 91 | 1009.0 |
| 20260506125556 | 48 | 279 | 0.0 | 3.0 | 0.01 | 0.66 | 0.50 | 91 | 1009.1 |
| 20260506124516 | 48 | 277 | 2.0 | 4.0 | 0.01 | 0.66 | 0.50 | 91 | 1009.1 |
| 20260506123516 | 47 | 274 | 1.0 | 2.0 | 0.01 | 0.65 | 0.49 | 91 | 1009.0 |
| 20260506122516 | 47 | 227 | 0.0 | 3.0 | 0.01 | 0.65 | 0.49 | 91 | 1009.0 |
| 20260506121515 | 47 | 276 | 1.0 | 2.0 | 0.02 | 0.65 | 0.49 | 91 | 1008.9 |
| 20260506120516 | 47 | 277 | 0.0 | 2.0 | 0.02 | 0.65 | 0.49 | 91 | 1008.2 |
| 20260506115516 | 47 | 279 | 1.0 | 4.0 | 0.02 | 0.65 | 0.49 | 91 | 1008.3 |
| 20260506114516 | 47 | 280 | 2.0 | 4.0 | 0.02 | 0.65 | 0.49 | 91 | 1008.6 |
| 20260506113516 | 47 | 261 | 0.0 | 1.0 | 0.01 | 0.64 | 0.48 | 91 | 1008.2 |
| 20260506112516 | 47 | 264 | 1.0 | 3.0 | 0.01 | 0.64 | 0.48 | 91 | 1008.7 |
| 20260506111515 | 47 | 279 | 1.0 | 3.0 | 0.00 | 0.63 | 0.47 | 91 | 1008.8 |
| 20260506110535 | 47 | 0.0 | 4.0 | 0.00 | 0.63 | 0.47 | 91 | 1008.3 | |
| 20260506105516 | 47 | 277 | 1.0 | 3.0 | 0.00 | 0.63 | 0.47 | 91 | 1007.9 |
| 20260506104516 | 47 | 265 | 0.0 | 4.0 | 0.01 | 0.63 | 0.47 | 91 | 1007.2 |
| 20260506103536 | 47 | 225 | 0.0 | 3.0 | 0.02 | 0.63 | 0.47 | 91 | 1006.9 |
| 20260506102516 | 47 | 266 | 0.0 | 3.0 | 0.03 | 0.63 | 0.47 | 91 | 1007.2 |